Location: Babice
(50.3480°N, 22.9363°E)
Time: 12:15:14
(UTC+00:00)

ARIANE 5 R/B - Pass Details

Date: 14 July 2020
Orbit: 749 x 794 km, 98.6° (Epoch: 07 August)

Event Time Altitude Azimuth Distance (km) Brightness Sun altitude
Rises 01:09:41 0° 17° (NNE) 3,235 7.3 -10.3°
Reaches altitude 10° 01:12:01 10° 21° (NNE) 2,310 6.4 -10.0°
Maximum altitude 01:17:03 60° 102° (ESE) 881 3.0 -9.5°
Drops below altitude 10° 01:22:07 10° 182° (S) 2,323 4.5 -9.0°
Enters shadow 01:23:10 - 184° (S) 2,733 4.9 -8.9°
